Hourly Data Report for October 14, 2018

CARBERRY CS
MANITOBA
Current Station Operator: ECCC - MSC

49°54'20.900" N
99°21'26.800" W
383.50 m
5010547
71170
WZE

Download Data

Hourly Data (October 2018)
Hourly Data Report for October 14, 2018
TIME
LST
Temp Definition
°C
Dew Point Definition
°C
Rel Hum Definition
%
Precip. Amount Definition
mm

Wind Dir Definition
10's deg

Wind Spd Definition
km/h
Visibility Definition
km
Stn Press Definition
kPa
Hmdx Definition


Wind Chill Definition


Weather Definition


00:00 -1.5 -5.4 74 0.0 27 23   96.76   -8 LegendNANA
01:00 -2.4 -5.5 79 0.0 27 27   96.74   -9 LegendNANA
02:00 -3.1 -5.0 86 0.0 27 22   96.76   -9 LegendNANA
03:00 -3.1 -5.1 86 0.0 26 20   96.82   -9 LegendNANA
04:00 -2.4 -4.0 89 0.0 28 20   96.83   -8 LegendNANA
05:00 -2.3 -3.8 90 0.0 29 22   96.88   -8 LegendNANA
06:00 -2.7 -4.1 90 0.2 30 20   96.95   -9 LegendNANA
07:00 -3.1 -4.6 90 0.0 31 20   97.00   -9 LegendNANA
08:00 -2.9 -4.1 91 0.0 31 21   97.10   -9 LegendNANA
09:00 -3.1 -4.2 92 0.2 31 20   97.20   -9 LegendNANA
10:00 -2.6 -4.2 88 0.6 31 19   97.26   -8 LegendNANA
11:00 -2.4 -4.1 88 0.3 31 19   97.30   -8 LegendNANA
12:00 -1.8 -4.2 83 0.5 32 16   97.34   -7 LegendNANA
13:00 -1.9 -3.9 86 0.3 33 17   97.37   -7 LegendNANA
14:00 -1.5 -4.1 83 0.2 33 20   97.38   -7 LegendNANA
15:00 -1.8 -3.6 88 0.2 32 19   97.43   -7 LegendNANA
16:00 -2.4 -3.6 91 0.3 31 16   97.47   -8 LegendNANA
17:00 -2.3 -4.8 83 0.2 31 16   97.51   -7 LegendNANA
18:00 -3.1 -5.2 85 0.0 31 16   97.56   -8 LegendNANA
19:00 -3.6 -6.1 83 0.0 31 13   97.59   -8 LegendNANA
20:00 -6.7 -8.3 89 0.0 31 4   97.57   -9 LegendNANA
21:00 -6.9 -7.9 93 0.0 30 4   97.60   -9 LegendNANA
22:00 -4.3 -6.8 83 0.0 26 9   97.58   -8 LegendNANA
23:00 -5.7 -8.1 84 0.0 27 11   97.54   -10 LegendNANA

Notes on Data Quality.

Legend

  • E = Estimated
  • M = Missing
  • NA = Not Available*
  • [empty] = Indicates an unobserved value
Date modified: